Regional Weather Roundup
Issued by NWS Charleston, WV

Home | Current Version | Previous Version | Text Only | Print | Product List | Glossary On
Versions: 1 2 3 4 5 6 7 8 9 10 11 12 13 14 15 16 17 18 19 20 21 22 23 24 25 26 27 28 29 30 31 32 33 34 35 36 37 38 39 40 41 42 43 44 45 46 47 48 49 50
000
ASUS41 KRLX 212210
RWRRLX
West Virginia Regional Weather Roundup
National Weather Service Charleston WV
500 PM EST SUN DEC 21 2014

Note: "fair" indicates few or no clouds below 12,000 feet with no
significant weather and/or obstructions to visibility.

WVZ003-212300-
Northern Panhandle of West Virginia

CITY           SKY/WX    TMP DP  RH WIND       PRES   REMARKS
WHEELING       PTCLDY    31  22  69 NE6       30.22S
$$

WVZ009-212300-
Northwest West Virginia

CITY           SKY/WX    TMP DP  RH WIND       PRES   REMARKS
PARKERSBURG    PTCLDY    38  25  59 NE6       30.23S
$$

WVZ006-212300-
Western West Virginia

CITY           SKY/WX    TMP DP  RH WIND       PRES   REMARKS
HUNTINGTON     PTCLDY    40  27  59 CALM      30.17S
$$

WVZ015-212300-
West Central West Virginia

CITY           SKY/WX    TMP DP  RH WIND       PRES   REMARKS
CHARLESTON     PTCLDY    43  26  51 N5        30.17F
$$

WVZ022-031-212300-
North Central West Virginia

CITY           SKY/WX    TMP DP  RH WIND       PRES   REMARKS
CLARKSBURG     PTCLDY    36  27  69 N5        30.20S
MORGANTOWN     PTCLDY    35  21  56 N3        30.22S
$$

WVZ025-035-042-045-212300-
Southern West Virginia

CITY           SKY/WX    TMP DP  RH WIND       PRES   REMARKS
BECKLEY        CLEAR     41  28  60 SE9       30.12F
LOGAN            N/A     45  27  49 CALM      30.13F
BLUEFIELD      CLEAR     41  29  62 SE5       30.13F
LEWISBURG      CLEAR     44  28  54 CALM      30.14F
$$

WVZ047-212300-
Northern Mountains of West Virginia

CITY           SKY/WX    TMP DP  RH WIND       PRES   REMARKS
ELKINS         CLEAR     37  29  72 W3        30.16S
$$

WVZ052-212300-
Eastern Panhandle of West Virginia

CITY           SKY/WX    TMP DP  RH WIND       PRES   REMARKS
MARTINSBURG    CLEAR     36  21  54 E7        30.28R
PETERSBURG     CLEAR     38  26  61 CALM      30.23R
$$


USA.gov is the U.S. government's official web portal to all federal, state and local government web resources and services.